TimePST,TemperatureF,Dew PointF,Humidity,Sea Level PressureIn,VisibilityMPH,Wind Direction,Wind SpeedMPH,Gust SpeedMPH,PrecipitationIn,Events,Conditions,WindDirDegrees,DateUTC
12:56 AM,41.0,39.0,93,30.22,8.0,Calm,Calm,-,N/A,,Clear,0,2012-12-10 08:56:00
1:56 AM,39.9,37.9,93,30.23,8.0,Calm,Calm,-,N/A,,Clear,0,2012-12-10 09:56:00
2:56 AM,41.0,39.9,96,30.23,10.0,Calm,Calm,-,N/A,,Clear,0,2012-12-10 10:56:00
3:56 AM,37.9,37.0,97,30.23,6.0,Calm,Calm,-,N/A,,Clear,0,2012-12-10 11:56:00
4:56 AM,39.0,37.0,93,30.23,10.0,Calm,Calm,-,N/A,,Clear,0,2012-12-10 12:56:00
5:56 AM,37.9,36.0,93,30.23,10.0,Calm,Calm,-,N/A,,Clear,0,2012-12-10 13:56:00
6:56 AM,37.0,35.1,93,30.25,10.0,NNW,3.5,-,N/A,,Clear,330,2012-12-10 14:56:00
7:56 AM,36.0,35.1,97,30.26,10.0,Calm,Calm,-,N/A,,Clear,0,2012-12-10 15:56:00
8:56 AM,43.0,39.9,89,30.27,10.0,Calm,Calm,-,N/A,,Clear,0,2012-12-10 16:56:00
9:56 AM,48.9,43.0,80,30.27,10.0,Calm,Calm,-,N/A,,Clear,0,2012-12-10 17:56:00
10:56 AM,54.0,43.0,66,30.26,10.0,Calm,Calm,-,N/A,,Clear,0,2012-12-10 18:56:00
11:56 AM,57.9,44.1,60,30.23,10.0,Calm,Calm,-,N/A,,Clear,0,2012-12-10 19:56:00
12:56 PM,62.1,45.0,53,30.19,10.0,NNW,3.5,-,N/A,,Clear,330,2012-12-10 20:56:00
1:56 PM,66.0,44.1,45,30.17,10.0,Calm,Calm,-,N/A,,Clear,0,2012-12-10 21:56:00
2:56 PM,64.9,48.0,54,30.14,10.0,Calm,Calm,-,N/A,,Clear,0,2012-12-10 22:56:00
3:56 PM,59.0,48.9,69,30.14,10.0,West,3.5,-,N/A,,Clear,260,2012-12-10 23:56:00
4:56 PM,55.9,48.0,75,30.14,10.0,Calm,Calm,-,N/A,,Clear,0,2012-12-11 00:56:00
5:56 PM,53.1,46.9,80,30.14,10.0,WNW,3.5,-,N/A,,Clear,290,2012-12-11 01:56:00
6:56 PM,48.9,46.0,90,30.16,10.0,Calm,Calm,-,N/A,,Clear,0,2012-12-11 02:56:00
7:56 PM,48.0,45.0,89,30.16,10.0,Calm,Calm,-,N/A,,Clear,0,2012-12-11 03:56:00
8:56 PM,46.0,44.1,93,30.15,6.0,Calm,Calm,-,N/A,,Clear,0,2012-12-11 04:56:00
9:56 PM,44.1,42.1,93,30.15,6.0,Calm,Calm,-,N/A,,Clear,0,2012-12-11 05:56:00
10:56 PM,43.0,41.0,93,30.13,6.0,Calm,Calm,-,N/A,,Clear,0,2012-12-11 06:56:00
11:56 PM,41.0,39.0,93,30.12,6.0,Calm,Calm,-,N/A,,Clear,0,2012-12-11 07:56:00